This is the latest recevied weather packets stored in our database for station/object DB0HRC-6. If no packets are shown the sender has not sent any weather packets the latest 10 day(s).
| Time | Temp. | Humidity | Pressure | Rain* | Wind** | Luminosity | Snow |
|---|---|---|---|---|---|---|---|
| 1777483807 | 11.67° C | 39% | 1024.8 hPa | 0 mm | - | - | - |
| 1777482907 | 12.22° C | 38% | 1024.5 hPa | 0 mm | - | - | - |
| 1777481108 | 13.33° C | 36% | 1024.6 hPa | 0 mm | - | - | - |
| 1777480207 | 12.78° C | 36% | 1024.5 hPa | 0 mm | - | - | - |
| 1777479308 | 13.33° C | 37% | 1024.4 hPa | 0 mm | - | - | - |
| 1777478407 | 13.33° C | 37% | 1024.4 hPa | 0 mm | - | - | - |
| 1777477507 | 13.89° C | 36% | 1024.1 hPa | 0 mm | - | - | - |
| 1777476607 | 13.33° C | 36% | 1024.5 hPa | 0 mm | - | - | - |
| 1777475708 | 13.33° C | 37% | 1024.4 hPa | 0 mm | - | - | - |
| 1777474807 | 13.89° C | 35% | 1024.5 hPa | 0 mm | - | - | - |
| 1777473908 | 13.89° C | 35% | 1024.5 hPa | 0 mm | - | - | - |
| 1777473008 | 13.89° C | 38% | 1024.5 hPa | 0 mm | - | - | - |
| 1777472109 | 12.78° C | 37% | 1024.4 hPa | 0 mm | - | - | - |
| 1777471207 | 13.33° C | 37% | 1024.3 hPa | 0 mm | - | - | - |
| 1777470307 | 13.33° C | 36% | 1024.5 hPa | 0 mm | - | - | - |
| 1777469407 | 13.33° C | 37% | 1024.4 hPa | 0 mm | - | - | - |
| 1777468507 | 13.33° C | 37% | 1024.5 hPa | 0 mm | - | - | - |
| 1777467607 | 13.33° C | 35% | 1024.5 hPa | 0 mm | - | - | - |
| 1777466707 | 13.89° C | 36% | 1024.4 hPa | 0 mm | - | - | - |
| 1777465807 | 13.33° C | 39% | 1024.5 hPa | 0 mm | - | - | - |
| 1777464907 | 13.33° C | 36% | 1024.6 hPa | 0 mm | - | - | - |
| 1777464009 | 12.78° C | 37% | 1024.5 hPa | 0 mm | - | - | - |
| 1777463109 | 13.33° C | 36% | 1024.5 hPa | 0 mm | - | - | - |
| 1777462208 | 12.78° C | 35% | 1024.5 hPa | 0 mm | - | - | - |
| 1777461307 | 13.33° C | 36% | 1024.5 hPa | 0 mm | - | - | - |
* Rain latest hour (hover to see other rain measurements)
** Current wind speed in m/s (hover to see current wind gust speed)